Weather History for KITH - May, 2013

Change the Weather History Date:

Friday, May 10, 2013

  Actual Average Record
Temperature  
Mean Temperature 59 °F -  
Max Temperature 72 °F - - ()
Min Temperature 48 °F - - ()
Degree Days  
Heating Degree Days 6    
Growing Degree Days 9 (Base 50)    
Moisture  
Dew Point 53 °F    
Average Humidity 78    
Maximum Humidity 100    
Minimum Humidity 49    
Precipitation  
Precipitation 0.25 in - - ()
Sea Level Pressure  
Sea Level Pressure 29.93 in    
Wind  
Wind Speed 6 mph (SSE)    
Max Wind Speed 17 mph    
Max Gust Speed 22 mph    
Visibility 9 miles    
Events Rain , Thunderstorm    
T = Trace of Precipitation, MM = Missing Value Source: NWS Daily Summary

Daily Weather History Graph

Daily Weather History Graph

Search for Another Location

Airport or City:

Trip Planner

Search our weather history database for the weather conditions in past years. The results will help you decide how hot, cold, wet, or windy it might be!

Date:

Astronomy

May. 10, 2013 Rise Set
Actual Time 5:49 AM EDT 8:15 PM EDT
Civil Twilight 5:17 AM EDT 8:47 PM EDT
Nautical Twilight 4:38 AM EDT 9:27 PM EDT
Astronomical Twilight 3:53 AM EDT 10:11 PM EDT
Moon 6:11 AM EDT (5/10) 9:03 PM EDT (5/10)
Length of Visible Light 15h 30m
Length of Day
14h 26m
New Moon, 0% of the Moon is Illuminated
May 10
New Moon
May 18
First Quarter
May 25
Full
May 31
Last Quarter
Jun 8
New

Hourly Weather History & Observations

Time (EDT) Temp. Dew Point Humidity Pressure Visibility Wind Dir Wind Speed Gust Speed Precip Events Conditions
12:56 AM 50.9 °F 50.0 °F 97% 29.99 in 10.0 mi ESE 3.5 mph - N/A   Scattered Clouds
1:56 AM 50.0 °F 48.9 °F 96% 29.99 in 8.0 mi East 4.6 mph - N/A   Clear
2:56 AM 48.9 °F 48.9 °F 100% 29.99 in 9.0 mi Calm Calm - N/A   Clear
3:56 AM 48.9 °F 48.9 °F 100% 29.99 in 9.0 mi East 4.6 mph - N/A   Clear
4:56 AM 48.9 °F 47.8 °F 96% 29.99 in 8.0 mi East 5.8 mph - N/A   Clear
5:56 AM 48.9 °F 47.8 °F 96% 29.99 in 6.0 mi East 5.8 mph - N/A   Clear
6:30 AM 48.2 °F 48.2 °F 100% 29.99 in 10.0 mi East 5.8 mph - N/A   Clear
6:56 AM 50.0 °F 48.9 °F 96% 30.00 in 10.0 mi East 3.5 mph - N/A   Clear
7:56 AM 54.9 °F 52.0 °F 90% 30.00 in 10.0 mi East 3.5 mph - N/A   Clear
8:56 AM 63.0 °F 54.9 °F 75% 30.00 in 10.0 mi South 6.9 mph - N/A   Clear
9:56 AM 65.8 °F 54.0 °F 65% 29.99 in 10.0 mi SSE 8.1 mph - N/A   Clear
10:56 AM 70.0 °F 52.9 °F 55% 29.97 in 10.0 mi SSE 9.2 mph - N/A   Clear
11:56 AM 70.0 °F 50.0 °F 49% 29.97 in 10.0 mi SSE 10.4 mph - N/A   Scattered Clouds
12:56 PM 68.9 °F 50.9 °F 53% 29.96 in 10.0 mi South 9.2 mph - N/A   Overcast
1:56 PM 63.9 °F 52.9 °F 67% 29.96 in 10.0 mi South 10.4 mph - 0.00 in   Mostly Cloudy
2:56 PM 68.9 °F 54.0 °F 59% 29.94 in 10.0 mi South 9.2 mph - 0.00 in   Mostly Cloudy
3:56 PM 70.9 °F 52.9 °F 53% 29.89 in 10.0 mi South 17.3 mph 21.9 mph N/A   Scattered Clouds
4:56 PM 70.0 °F 50.9 °F 51% 29.87 in 10.0 mi South 13.8 mph - N/A   Scattered Clouds
5:56 PM 68.9 °F 50.9 °F 53% 29.87 in 10.0 mi South 10.4 mph - N/A   Scattered Clouds
6:56 PM 66.9 °F 52.0 °F 59% 29.85 in 10.0 mi SSE 9.2 mph - N/A   Mostly Cloudy
7:56 PM 66.9 °F 52.9 °F 61% 29.84 in 10.0 mi SSE 10.4 mph - N/A   Mostly Cloudy
8:56 PM 65.8 °F 54.0 °F 65% 29.83 in 6.0 mi South 6.9 mph - N/A Thunderstorm Thunderstorm
9:20 PM 62.6 °F 57.2 °F 82% 29.89 in 5.0 mi WSW 8.1 mph - 0.03 in Rain , Thunderstorm Thunderstorms and Rain
9:56 PM 61.0 °F 59.0 °F 93% 29.87 in 4.0 mi SSW 6.9 mph - 0.14 in Rain Heavy Rain
10:08 PM 60.8 °F 59.0 °F 94% 29.88 in 7.0 mi South 6.9 mph - 0.03 in Rain Rain
10:22 PM 60.8 °F 59.0 °F 94% 29.86 in 6.0 mi South 9.2 mph - 0.06 in Rain Rain
10:56 PM 59.9 °F 56.8 °F 90% 29.82 in 10.0 mi SSE 11.5 mph - 0.10 in Rain Light Rain
11:56 PM 59.0 °F 56.8 °F 93% 29.80 in 10.0 mi South 12.7 mph - 0.01 in Rain Light Rain